Date String (YYYY-MM-DD hh:mm:ss) UTC,Instrument flags,absolute air pressure of the measurement (hPa),sample flow rate (lpm),inlet stack bypass flow (lpm),air temperature of the measurement (°C),ambient temperature measured by the external sensor (°C),aerosol sample conditioner tube jacket temperature (°C),OPC LED temperature (°C),internal box temperature (°C),relative humidity of the measurement (%),span deviation,mass concentration of particles derived from Lorenz-Mie calculation of OPC scattering (μg/m³),mass concentration of particles derived from Lorenz-Mie calculation of OPC scattering (μg/m³),mass concentration of particles derived from Lorenz-Mie calculation of OPC scattering (μg/m³)
DateTimeUTC,F1_M11,P_M11,Q1_M11,Q2_M11,T1_M11,T2_M11,T3_M11,T4_M11,T5_M11,U1_M11,ZSPAN_M11,X2_M11,X0_M11,X1_M11
2024-02-27 06:00:00,SystemResetWarning,0814.3,5.00,000.00,021.9,021.0,000.0,030.3,023.6,17.6,0000.0,0001.77,0007.66,0000.80
2024-02-27 06:01:00,SystemResetWarning,0814.2,5.00,000.00,021.8,021.0,000.0,030.3,023.6,17.6,0000.0,0001.69,0007.08,0000.80
2024-02-27 06:02:00,SystemResetWarning,0814.2,5.00,000.00,021.8,021.0,000.0,030.3,023.6,17.7,0000.0,0001.63,0007.50,0000.79
2024-02-27 06:03:00,SystemResetWarning,0814.2,5.00,000.00,021.8,021.0,000.0,030.3,023.6,17.6,0000.0,0001.53,0006.82,0000.76
2024-02-27 06:04:00,SystemResetWarning,0814.2,5.00,000.00,021.8,021.0,000.0,030.3,023.6,17.5,0000.0,0001.46,0006.42,0000.75
2024-02-27 06:05:00,SystemResetWarning,0814.2,5.00,000.00,021.8,021.0,000.0,030.3,023.6,17.7,0000.0,0001.39,0005.55,0000.74
2024-02-27 06:06:00,SystemResetWarning,0814.2,4.99,000.00,021.8,021.0,000.0,030.3,023.6,17.7,0000.0,0001.32,0005.31,0000.73
2024-02-27 06:07:00,SystemResetWarning,0814.1,5.00,000.00,021.8,021.0,000.0,030.3,023.6,17.7,0000.0,0001.28,0005.15,0000.73
2024-02-27 06:08:00,SystemResetWarning,0814.1,5.00,000.00,021.9,021.0,000.0,030.3,023.6,17.6,0000.0,0001.29,0005.25,0000.72
2024-02-27 06:09:00,SystemResetWarning,0814.1,5.00,000.00,021.9,021.0,000.0,030.3,023.6,17.5,0000.0,0001.31,0004.66,0000.72
2024-02-27 06:10:00,SystemResetWarning,0814.0,5.00,000.00,021.9,021.0,000.0,030.3,023.6,17.3,0000.0,0001.30,0004.74,0000.71
2024-02-27 06:11:00,SystemResetWarning,0814.0,4.99,000.00,021.9,021.0,000.0,030.3,023.6,17.5,0000.0,0001.27,0004.69,0000.70
2024-02-27 06:12:00,SystemResetWarning,0814.0,5.00,000.00,021.9,021.0,000.0,030.3,023.6,17.6,0000.0,0001.24,0004.60,0000.70
2024-02-27 06:13:00,SystemResetWarning,0813.9,5.00,000.00,021.9,021.0,000.0,030.3,023.6,17.7,0000.0,0001.29,0004.98,0000.69
2024-02-27 06:14:00,SystemResetWarning,0813.9,5.01,000.00,021.9,021.0,000.0,030.3,023.6,17.5,0000.0,0001.33,0005.28,0000.70
2024-02-27 06:15:00,SystemResetWarning,0813.9,5.01,000.00,021.9,021.0,000.0,030.3,023.6,17.4,0000.0,0001.37,0005.43,0000.69
2024-02-27 06:16:00,SystemResetWarning,0813.7,5.00,000.00,021.9,021.0,000.0,030.3,023.6,17.5,0000.0,0001.39,0005.28,0000.70
2024-02-27 06:17:00,SystemResetWarning,0813.8,4.99,000.00,021.9,021.0,000.0,030.3,023.6,17.4,0000.0,0001.48,0005.45,0000.70
2024-02-27 06:18:00,SystemResetWarning,0813.7,4.99,000.00,021.9,021.0,000.0,030.3,023.6,17.2,0000.0,0001.52,0005.71,0000.72
2024-02-27 06:19:00,SystemResetWarning,0813.7,5.01,000.00,021.9,021.1,000.0,030.2,023.6,17.1,0000.0,0001.51,0005.74,0000.72
2024-02-27 06:20:00,SystemResetWarning,0813.7,5.01,000.00,021.9,021.1,000.0,030.2,023.6,17.2,0000.0,0001.56,0005.83,0000.73
2024-02-27 06:21:00,SystemResetWarning,0813.7,5.00,000.00,021.9,021.1,000.0,030.2,023.6,16.8,0000.0,0001.62,0005.78,0000.73
2024-02-27 06:22:00,SystemResetWarning,0813.7,4.99,000.00,021.9,021.1,000.0,030.2,023.6,16.6,0000.0,0001.65,0005.92,0000.75
2024-02-27 06:23:00,SystemResetWarning,0813.6,4.99,000.00,021.9,021.1,000.0,030.2,023.6,16.5,0000.0,0001.66,0005.95,0000.75
2024-02-27 06:24:00,SystemResetWarning,0813.6,5.00,000.00,021.9,021.1,000.0,030.2,023.6,16.1,0000.0,0001.62,0004.92,0000.75
2024-02-27 06:25:00,SystemResetWarning,0813.7,5.00,000.00,021.9,021.0,000.0,030.2,023.6,16.0,0000.0,0001.62,0004.27,0000.77
2024-02-27 06:26:00,SystemResetWarning,0813.6,5.00,000.00,021.9,021.0,000.0,030.2,023.6,16.0,0000.0,0001.59,0004.24,0000.76
2024-02-27 06:27:00,SystemResetWarning,0813.5,5.00,000.00,021.9,021.0,000.0,030.2,023.6,15.9,0000.0,0001.59,0004.32,0000.76
2024-02-27 06:28:00,SystemResetWarning,0813.5,5.00,000.00,021.9,021.0,000.0,030.2,023.6,15.9,0000.0,0001.57,0004.11,0000.76
2024-02-27 06:29:00,SystemResetWarning,0813.5,5.00,000.00,021.8,021.0,000.0,030.2,023.6,16.0,0000.0,0001.57,0004.02,0000.75
2024-02-27 06:30:00,SystemResetWarning,0813.5,5.00,000.00,021.8,020.9,000.0,030.2,023.6,16.0,0000.0,0001.59,0004.16,0000.75
2024-02-27 06:31:00,SystemResetWarning,0813.5,4.99,000.00,021.8,020.9,000.0,030.2,023.6,16.1,0000.0,0001.54,0005.20,0000.74
2024-02-27 06:32:00,SystemResetWarning,0813.5,5.00,000.00,021.8,020.9,000.0,030.2,023.6,16.2,0000.0,0001.47,0004.90,0000.75
2024-02-27 06:33:00,SystemResetWarning,0813.4,5.00,000.00,021.8,020.9,000.0,030.2,023.6,16.2,0000.0,0001.51,0004.92,0000.75
2024-02-27 06:34:00,SystemResetWarning,0813.4,5.00,000.00,021.8,020.9,000.0,030.2,023.5,16.2,0000.0,0001.51,0005.48,0000.74
2024-02-27 06:35:00,SystemResetWarning,0813.4,5.00,000.00,021.8,020.9,000.0,030.2,023.5,16.3,0000.0,0001.54,0005.62,0000.74
2024-02-27 06:36:00,SystemResetWarning,0813.4,5.00,000.00,021.8,020.9,000.0,030.2,023.5,16.3,0000.0,0001.60,0006.41,0000.75
2024-02-27 06:37:00,SystemResetWarning,0813.3,5.00,000.00,021.8,020.9,000.0,030.2,023.5,16.3,0000.0,0001.64,0006.80,0000.76
2024-02-27 06:38:00,SystemResetWarning,0813.4,5.00,000.00,021.8,020.8,000.0,030.2,023.5,16.3,0000.0,0001.68,0006.90,0000.77
2024-02-27 06:39:00,SystemResetWarning,0813.4,5.00,000.00,021.7,020.8,000.0,030.2,023.5,16.3,0000.0,0001.69,0006.93,0000.77
2024-02-27 06:40:00,SystemResetWarning,0813.4,4.99,000.00,021.7,020.8,000.0,030.2,023.5,16.4,0000.0,0001.68,0006.89,0000.77
2024-02-27 06:41:00,SystemResetWarning,0813.3,5.01,000.00,021.7,020.8,000.0,030.2,023.5,16.5,0000.0,0001.68,0006.70,0000.77
2024-02-27 06:42:00,SystemResetWarning,0813.3,5.00,000.00,021.7,020.8,000.0,030.2,023.4,16.5,0000.0,0001.75,0006.37,0000.79
2024-02-27 06:43:00,SystemResetWarning,0813.3,4.99,000.00,021.7,020.8,000.0,030.1,023.4,16.5,0000.0,0001.77,0005.90,0000.80
2024-02-27 06:44:00,SystemResetWarning,0813.3,5.00,000.00,021.7,020.8,000.0,030.1,023.4,16.6,0000.0,0001.76,0005.95,0000.79
2024-02-27 06:45:00,SystemResetWarning,0813.3,4.99,000.00,021.7,020.8,000.0,030.1,023.4,16.6,0000.0,0001.75,0005.36,0000.80
2024-02-27 06:46:00,SystemResetWarning,0813.3,5.00,000.00,021.6,020.7,000.0,030.1,023.4,16.7,0000.0,0001.77,0005.30,0000.80
2024-02-27 06:47:00,SystemResetWarning,0813.3,5.00,000.00,021.6,020.7,000.0,030.1,023.4,16.7,0000.0,0001.73,0004.66,0000.79
2024-02-27 06:48:00,SystemResetWarning,0813.2,5.01,000.00,021.6,020.7,000.0,030.1,023.4,16.8,0000.0,0001.71,0004.11,0000.78
2024-02-27 06:49:00,SystemResetWarning,0813.2,5.00,000.00,021.6,020.7,000.0,030.1,023.3,16.8,0000.0,0001.68,0003.98,0000.77
2024-02-27 06:50:00,SystemResetWarning,0813.1,5.01,000.00,021.6,020.7,000.0,030.1,023.3,16.8,0000.0,0001.68,0004.00,0000.77
2024-02-27 06:51:00,SystemResetWarning,0813.2,5.00,000.00,021.6,020.7,000.0,030.1,023.3,16.9,0000.0,0001.68,0004.11,0000.77
2024-02-27 06:52:00,SystemResetWarning,0813.2,5.00,000.00,021.6,020.7,000.0,030.1,023.3,16.9,0000.0,0001.65,0004.05,0000.76
2024-02-27 06:53:00,SystemResetWarning,0813.2,5.00,000.00,021.6,020.7,000.0,030.1,023.3,16.9,0000.0,0001.64,0003.87,0000.74
2024-02-27 06:54:00,SystemResetWarning,0813.1,5.00,000.00,021.5,020.7,000.0,030.0,023.3,17.0,0000.0,0001.66,0003.92,0000.73
2024-02-27 06:55:00,SystemResetWarning,0813.1,4.99,000.00,021.5,020.6,000.0,030.0,023.3,17.0,0000.0,0001.62,0003.78,0000.73
2024-02-27 06:56:00,SystemResetWarning,0813.0,4.99,000.00,021.5,020.6,000.0,030.0,023.3,17.1,0000.0,0001.65,0004.03,0000.72
2024-02-27 06:57:00,SystemResetWarning,0813.0,5.00,000.00,021.5,020.6,000.0,030.0,023.3,17.1,0000.0,0001.62,0003.88,0000.73
2024-02-27 06:58:00,SystemResetWarning,0813.0,5.00,000.00,021.5,020.6,000.0,030.0,023.3,17.1,0000.0,0001.66,0003.97,0000.74
2024-02-27 06:59:00,SystemResetWarning,0813.0,5.01,000.00,021.5,020.6,000.0,030.0,023.2,17.2,0000.0,0001.70,0004.43,0000.74
